• In Kazakhstan
  • List of Countries
  • For 7 days
  • Water Temperature
  • Weather Map
  • News
  • Weather Widgets
  • user-avatar
    Login

    Hourly Weather La Rioja

    Today, 23 August, Friday

    Time Temperature Precipitation Wind Pressure Humidity
    00:00 +14°C° 0 mm 1 mps 720 mmHg 55%
    01:00 +13°C° 0 mm 1 mps 720 mmHg 57%
    02:00 +11°C° 0 mm 0 mps 720 mmHg 60%
    03:00 +11°C° 0 mm 0 mps 719 mmHg 63%
    04:00 +11°C° 0 mm 1 mps 718 mmHg 65%
    05:00 +11°C° 0 mm 1 mps 718 mmHg 67%
    06:00 +12°C° 0 mm 1 mps 718 mmHg 61%
    07:00 +14°C° 0 mm 1 mps 719 mmHg 56%
    08:00 +15°C° 0 mm 1 mps 719 mmHg 50%
    09:00 +18°C° 0 mm 1 mps 719 mmHg 45%
    10:00 +20°C° 0 mm 1 mps 718 mmHg 41%
    11:00 +20°C° 0 mm 2 mps 718 mmHg 37%
    12:00 +23°C° 0 mm 2 mps 717 mmHg 34%
    13:00 +24°C° 0 mm 2 mps 716 mmHg 32%
    14:00 +25°C° 0 mm 2 mps 715 mmHg 29%
    15:00 +25°C° 0 mm 2 mps 714 mmHg 29%
    16:00 +25°C° 0 mm 2 mps 714 mmHg 29%
    17:00 +25°C° 0 mm 2 mps 713 mmHg 29%
    18:00 +23°C° 0 mm 1 mps 714 mmHg 34%
    19:00 +21°C° 0 mm 1 mps 714 mmHg 39%
    20:00 +18°C° 0 mm 1 mps 714 mmHg 45%
    21:00 +18°C° 0 mm 1 mps 714 mmHg 47%
    22:00 +16°C° 0 mm 1 mps 714 mmHg 50%
    23:00 +15°C° 0 mm 1 mps 714 mmHg 52%

    Tomorrow, 24 August, Saturday

    Time Temperature Precipitation Wind Pressure Humidity
    00:00 +15°C° 0 mm 1 mps 714 mmHg 54%
    01:00 +15°C° 0 mm 2 mps 714 mmHg 55%
    02:00 +13°C° 0 mm 3 mps 713 mmHg 56%
    03:00 +13°C° 0 mm 3 mps 713 mmHg 58%
    04:00 +12°C° 0 mm 3 mps 713 mmHg 60%
    05:00 +12°C° 0 mm 3 mps 713 mmHg 62%
    06:00 +13°C° 0 mm 3 mps 714 mmHg 58%
    07:00 +14°C° 0 mm 3 mps 714 mmHg 55%
    08:00 +14°C° 0 mm 3 mps 714 mmHg 51%
    09:00 +17°C° 0 mm 3 mps 714 mmHg 47%
    10:00 +19°C° 0 mm 3 mps 715 mmHg 42%
    11:00 +20°C° 0 mm 3 mps 715 mmHg 38%
    12:00 +21°C° 0 mm 3 mps 714 mmHg 36%
    13:00 +22°C° 0 mm 3 mps 713 mmHg 34%
    14:00 +24°C° 0 mm 3 mps 713 mmHg 31%
    15:00 +24°C° 0 mm 2 mps 713 mmHg 31%
    16:00 +24°C° 0 mm 2 mps 713 mmHg 32%
    17:00 +24°C° 0 mm 1 mps 713 mmHg 32%
    18:00 +22°C° 0 mm 1 mps 713 mmHg 35%
    19:00 +20°C° 0 mm 2 mps 714 mmHg 38%
    20:00 +18°C° 0 mm 2 mps 714 mmHg 42%
    21:00 +19°C° 0 mm 1 mps 714 mmHg 43%
    22:00 +18°C° 0 mm 1 mps 715 mmHg 43%
    23:00 +18°C° 0 mm 1 mps 715 mmHg 44%

    Day after tomorrow, 25 August, Sunday

    Time Temperature Precipitation Wind Pressure Humidity
    00:00 +16°C° 0 mm 1 mps 715 mmHg 47%
    01:00 +16°C° 0 mm 1 mps 714 mmHg 49%
    02:00 +15°C° 0 mm 1 mps 714 mmHg 51%
    03:00 +15°C° 0 mm 2 mps 714 mmHg 53%
    04:00 +15°C° 0 mm 2 mps 714 mmHg 54%
    05:00 +15°C° 0 mm 2 mps 714 mmHg 56%
    06:00 +16°C° 0 mm 2 mps 714 mmHg 54%
    07:00 +17°C° 0 mm 2 mps 715 mmHg 52%
    08:00 +17°C° 0 mm 3 mps 716 mmHg 50%
    09:00 +19°C° 0 mm 3 mps 716 mmHg 46%
    10:00 +21°C° 0 mm 3 mps 716 mmHg 41%
    11:00 +24°C° 0 mm 3 mps 717 mmHg 36%
    12:00 +25°C° 0 mm 3 mps 716 mmHg 34%
    13:00 +26°C° 0 mm 3 mps 716 mmHg 32%
    14:00 +27°C° 0 mm 3 mps 715 mmHg 29%
    15:00 +27°C° 0 mm 3 mps 715 mmHg 30%
    16:00 +27°C° 0 mm 2 mps 715 mmHg 30%
    17:00 +27°C° 0 mm 2 mps 715 mmHg 31%
    18:00 +25°C° 0 mm 2 mps 715 mmHg 36%
    19:00 +23°C° 0 mm 2 mps 716 mmHg 42%
    20:00 +20°C° 0 mm 1 mps 716 mmHg 48%
    21:00 +20°C° 0 mm 1 mps 717 mmHg 52%
    22:00 +19°C° 0 mm 1 mps 717 mmHg 55%
    23:00 +18°C° 0 mm 1 mps 718 mmHg 59%

    26 August, Monday

    Time Temperature Precipitation Wind Pressure Humidity
    00:00 +16°C° 0 mm 1 mps 717 mmHg 63%
    01:00 +16°C° 0 mm 1 mps 717 mmHg 66%
    02:00 +16°C° 0 mm 1 mps 717 mmHg 70%
    03:00 +15°C° 0 mm 1 mps 716 mmHg 72%
    04:00 +15°C° 0 mm 1 mps 716 mmHg 73%
    05:00 +15°C° 0 mm 1 mps 715 mmHg 75%
    06:00 +16°C° 0 mm 1 mps 716 mmHg 69%
    07:00 +18°C° 0 mm 1 mps 716 mmHg 64%
    08:00 +19°C° 0 mm 1 mps 716 mmHg 58%
    09:00 +21°C° 0 mm 1 mps 716 mmHg 52%
    10:00 +23°C° 0 mm 2 mps 716 mmHg 46%
    11:00 +25°C° 0 mm 2 mps 716 mmHg 41%
    12:00 +26°C° 0 mm 2 mps 715 mmHg 37%
    13:00 +28°C° 0 mm 2 mps 714 mmHg 34%
    14:00 +29°C° 0 mm 2 mps 713 mmHg 31%
    15:00 +29°C° 0 mm 2 mps 713 mmHg 30%
    16:00 +29°C° 0 mm 2 mps 713 mmHg 30%
    17:00 +29°C° 0 mm 2 mps 713 mmHg 30%
    18:00 +27°C° 0 mm 2 mps 713 mmHg 36%
    19:00 +25°C° 0 mm 2 mps 714 mmHg 42%
    20:00 +23°C° 0 mm 2 mps 714 mmHg 48%
    21:00 +21°C° 0 mm 2 mps 714 mmHg 53%
    22:00 +21°C° 0 mm 1 mps 714 mmHg 58%
    23:00 +21°C° 0 mm 1 mps 715 mmHg 63%

    27 August, Tuesday

    Time Temperature Precipitation Wind Pressure Humidity
    00:00 +20°C° 0 mm 1 mps 715 mmHg 67%
    01:00 +19°C° 0 mm 1 mps 715 mmHg 70%
    02:00 +18°C° 0 mm 2 mps 714 mmHg 74%
    03:00 +17°C° 0 mm 2 mps 714 mmHg 76%
    04:00 +17°C° 0 mm 2 mps 714 mmHg 78%
    05:00 +17°C° 0 mm 2 mps 714 mmHg 80%
    06:00 +18°C° 0 mm 2 mps 715 mmHg 75%
    07:00 +19°C° 0 mm 2 mps 715 mmHg 70%
    08:00 +20°C° 0 mm 2 mps 716 mmHg 65%
    09:00 +23°C° 0 mm 2 mps 716 mmHg 60%
    10:00 +25°C° 0 mm 2 mps 716 mmHg 54%
    11:00 +27°C° 0 mm 2 mps 717 mmHg 48%
    12:00 +28°C° 0 mm 2 mps 716 mmHg 45%
    13:00 +29°C° 0 mm 2 mps 715 mmHg 41%
    14:00 +30°C° 0 mm 2 mps 715 mmHg 38%
    15:00 +30°C° 0 mm 2 mps 714 mmHg 37%
    16:00 +30°C° 0 mm 1 mps 714 mmHg 37%
    17:00 +30°C° 0 mm 1 mps 713 mmHg 37%
    18:00 +29°C° 0 mm 1 mps 714 mmHg 42%
    19:00 +27°C° 0 mm 2 mps 714 mmHg 46%
    20:00 +25°C° 0 mm 2 mps 714 mmHg 51%
    21:00 +24°C° 0 mm 1 mps 714 mmHg 53%
    22:00 +24°C° 0 mm 1 mps 714 mmHg 55%
    23:00 +23°C° 0 mm 1 mps 714 mmHg 57%

    28 August, Wednesday

    Time Temperature Precipitation Wind Pressure Humidity
    00:00 +22°C° 0 mm 1 mps 713 mmHg 60%
    01:00 +22°C° 0 mm 1 mps 713 mmHg 63%
    02:00 +21°C° 0 mm 1 mps 712 mmHg 66%
    03:00 +21°C° 0 mm 1 mps 712 mmHg 66%
    04:00 +21°C° 0 mm 1 mps 712 mmHg 67%
    05:00 +20°C° 0 mm 1 mps 712 mmHg 67%
    06:00 +21°C° 0 mm 2 mps 712 mmHg 61%
    07:00 +23°C° 0 mm 2 mps 712 mmHg 54%
    08:00 +25°C° 0 mm 2 mps 713 mmHg 48%
    09:00 +27°C° 0 mm 2 mps 713 mmHg 42%
    10:00 +29°C° 0 mm 2 mps 713 mmHg 36%
    11:00 +31°C° 0 mm 2 mps 713 mmHg 31%
    12:00 +34°C° 0 mm 2 mps 712 mmHg 28%
    13:00 +35°C° 0 mm 2 mps 712 mmHg 26%
    14:00 +36°C° 0 mm 2 mps 711 mmHg 24%
    15:00 +36°C° 0 mm 2 mps 711 mmHg 24%
    16:00 +35°C° 0 mm 1 mps 711 mmHg 24%
    17:00 +35°C° 0 mm 1 mps 710 mmHg 24%
    18:00 +32°C° 0 mm 1 mps 711 mmHg 29%
    19:00 +30°C° 0 mm 1 mps 711 mmHg 34%
    20:00 +27°C° 0 mm 1 mps 711 mmHg 39%
    21:00 +27°C° 0 mm 1 mps 711 mmHg 41%
    22:00 +26°C° 0 mm 1 mps 711 mmHg 42%
    23:00 +26°C° 0 mm 1 mps 712 mmHg 44%
    Show more